Regional Weather Roundup
Issued by NWS Sioux Falls, SD

Home | Current Version | Previous Version | Graphics & Text | Print | Product List | Glossary On
Versions: 1 2 3 4 5 6 7 8 9 10 11 12 13 14 15 16 17 18 19 20 21 22 23 24 25 26 27 28 29 30 31 32 33 34 35 36 37 38 39 40 41 42 43 44 45 46 47 48 49 50
000
ASUS43 KFSD 310410
RWRFSD

WEATHER ROUNDUP FOR SE SOUTH DAKOTA/SW MINNESOTA/NW IOWA
NATIONAL WEATHER SERVICE SIOUX FALLS SD
1100 PM CDT THU OCT 30 2014

NOTE: "FAIR" INDICATES FEW OR NO CLOUDS BELOW 12,000 FEET WITH NO
SIGNIFICANT WEATHER AND OR OBSTRUCTIONS TO VISIBILITY.


SDZ038>040-050-052>070-310500-
SOUTHEAST SOUTH DAKOTA

CITY           SKY/WX    TMP DP  RH WIND       PRES   REMARKS
CHAMBERLAIN    CLOUDY    33  26  73 NE12G20   30.53R WCI  25
HURON          CLEAR     29  20  69 N9        30.54R WCI  20
MADISON        FAIR      28  23  80 N16G23    30.48R WCI  17
MITCHELL       CLOUDY    36  25  64 N21       30.52R
SIOUX FALLS    MOCLDY    32  21  64 N22G36    30.47R WCI  19
WINNER         MOCLDY    32  28  85 N8        30.51R WCI  25
YANKTON        CLOUDY    37  27  65 N16       30.47R
$$

MNZ071-072-080-081-089-090-097-098-310500-
SOUTHWEST MINNESOTA

CITY           SKY/WX    TMP DP  RH WIND       PRES   REMARKS
FAIRMONT       CLOUDY    37  19  48 N21G32    30.34R
JACKSON        CLOUDY    36  25  64 N23G33    30.36R
LUVERNE        CLOUDY    34  23  64 N22G35    30.45R WCI  22
MARSHALL       CLEAR     30  18  59 N16       30.44R WCI  19
MONTEVIDEO     CLEAR     30  25  80 N12G17    30.47R WCI  21
PIPESTONE      CLEAR     30  19  64 N14G20    30.42R WCI  20
REDWOOD FALLS  CLEAR     33  20  58 N10G22    30.42R WCI  25
TRACY          CLEAR     32  25  74 N15       30.43R WCI  22
WINDOM         MOCLDY    34  19  55 N25G38    30.38R WCI  21
WORTHINGTON    CLOUDY    34  21  60 N26G32    30.40R WCI  21
$$

IAZ001>003-012>014-020>022-031-032-NEZ013-014-SDZ071-310500-
NORTHWEST IOWA

CITY           SKY/WX    TMP DP  RH WIND       PRES   REMARKS
CHEROKEE       CLOUDY    35  27  71 N17G29    30.39R WCI  25
DENISON        CLOUDY    39  32  75 N18G31    30.33R
ESTHERVILLE    CLOUDY    36  26  67 N24G32    30.34R
LE MARS        CLOUDY    37  27  65 N24G36    30.42R
ORANGE CITY    CLOUDY    36  25  64 N20G29    30.41R
SHELDON        CLOUDY    34  23  64 N22G38    30.41R WCI  22
SIOUX CITY     CLOUDY    41  29  62 N25       30.41R
SPENCER        CLOUDY    35  24  64 N23G33    30.38R WCI  23
STORM LAKE     CLOUDY    36  27  69 N22G30    30.36R
$$

ABBREVIATIONS USED IN REMARKS
   TC - TEMPERATURE IN CELSIUS
  WCI - WIND CHILL INDEX
   HX - HEAT INDEX
  VSB - VISIBILITY




USA.gov is the U.S. government's official web portal to all federal, state and local government web resources and services.